User: anonymous   Login
Location: Unspecified
(0.0000°N, 0.0000°E)
Time: 18:07:37
(UTC+00:00)
Language:

ONEWEB-0340 - Orbit

View from above orbital plane
View from above orbital plane
View from above satellite
View from above satellite

Ground track
Ground track

The orbit is defined by the following mean orbital elements,

1 49206U          26145.29470029 +.00000000 +00000-0 +19350-3 0 00006
2 49206  87.9171 340.0107 0001916  91.5220 268.6132 13.18686896    01
Epoch (UTC): 25 May 2026 07:04:22
Eccentricity: 0.0001916
inclination: 87.9171°
perigee height: 1188 km
apogee height: 1191 km
right ascension of ascending node: 340.0107°
argument of perigee: 91.5220°
revolutions per day: 13.18686896
mean anomaly at epoch: 268.6132°

The dashed part of the orbit path shows where the satellite is in the earth's shadow,  

DLR